Lapse_Rate
6.4 6.2 6.1 6.0 5.8 5.8 6.0 5.9 5.7 5.6 5.4 5.3 5.3 5.2 5.1 5.2 5.3 4.8 5.0 4.9 5.0 4.8 5.2 5.2 5.3 5.6 5.8 5.6 5.5 5.5 5.7 5.5 5.8 6.0 5.8 5.6 6.0 5.8 5.7 5.7 5.7 5.8 5.9
5.9 5.9 5.8 5.7 5.5 5.3 5.5 5.8 5.8 5.7 5.7 5.5 5.3 5.3 5.3 5.1 5.2 5.1 4.6 4.6 4.8 5.1 5.2 5.5 5.2 5.2 5.7 5.5 5.5 5.5 5.6 5.5 5.5 5.8 5.7 5.7 5.8 5.8 5.8 5.7 5.6 5.7 5.7
5.7 5.7 5.6 5.6 5.2 5.0 5.0 5.2 5.2 5.3 5.2 5.4 5.4 5.2 5.3 5.3 5.1 5.1 5.1 5.0 5.0 5.2 5.3 5.0 5.3 5.3 5.5 5.4 5.2 5.4 5.5 5.5 5.3 5.6 5.6 5.5 5.6 5.6 5.8 5.9 5.7 5.5 5.6
5.4 5.6 5.6 5.4 5.3 5.1 5.0 5.1 5.1 5.2 5.4 5.2 5.1 5.3 5.2 5.3 5.4 5.2 5.0 4.9 5.0 4.8 5.2 5.3 5.3 5.0 5.4 5.1 5.3 5.5 5.5 5.3 5.5 5.5 5.7 5.7 5.6 5.5 5.5 5.7 5.7 5.6 5.5
5.5 5.2 5.3 5.5 5.5 5.6 5.6 5.6 5.4 5.4 5.3 5.2 5.3 5.2 5.1 5.2 5.4 5.4 5.4 5.4 5.0 4.9 5.3 5.4 5.2 5.3 5.2 5.0 5.2 5.2 5.3 5.4 5.4 5.3 5.4 5.5 5.6 5.5 5.5 5.3 5.7 5.5 5.7
5.5 5.5 5.0 5.1 5.0 4.9 5.3 5.3 4.8 5.0 5.4 5.3 5.3 5.3 5.2 5.2 5.3 5.3 5.3 5.5 5.4 5.2 4.9 5.1 5.3 5.8 5.4 5.3 5.3 5.4 5.5 5.6 5.4 5.5 5.5 5.4 5.7 5.4 5.4 5.4 5.5 5.5 5.5
5.9 5.6 5.3 5.3 4.8 4.6 4.9 5.1 5.1 5.2 5.4 5.4 5.2 5.3 5.4 5.0 5.1 5.5 5.7 5.3 5.2 5.3 5.4 5.3 5.3 5.4 5.5 5.8 5.9 5.6 5.8 5.6 5.7 5.5 5.3 5.3 5.3 5.3 5.3 4.8 5.4 5.5 5.7
5.9 5.8 5.5 5.4 5.7 5.4 5.5 5.2 5.0 5.0 4.9 4.9 5.1 5.2 5.3 5.2 5.2 5.1 5.5 5.8 5.6 5.2 5.1 5.5 5.6 5.5 5.5 5.8 5.9 5.8 6.2 6.3 6.0 5.8 5.6 5.1 5.2 5.2 5.0 4.8 5.0 5.4 5.5
5.5 5.4 5.4 5.3 5.4 5.5 5.3 5.2 5.2 5.1 5.2 5.0 4.8 4.9 5.2 5.2 5.3 5.3 5.5 5.8 5.8 5.6 5.5 5.5 5.6 5.7 5.6 5.6 5.8 6.0 5.9 6.6 6.0 5.5 5.6 5.3 5.4 5.4 5.2 5.1 5.1 5.1 5.5
5.4 5.4 5.2 5.2 5.1 5.1 5.1 5.2 5.0 5.0 5.0 5.0 5.1 5.0 5.0 5.2 5.3 5.6 5.7 5.9 5.9 5.9 5.8 5.6 5.6 5.6 5.5 5.6 5.7 5.5 5.6 5.5 5.7 5.4 5.4 5.4 5.6 5.7 6.0 5.6 5.5 5.3 5.2
5.5 5.3 5.3 5.4 5.3 5.4 5.4 5.4 5.3 5.3 5.4 5.5 5.6 5.8 5.8 5.8 5.9 5.8 5.9 6.1 6.0 6.0 5.9 5.8 5.5 5.6 5.6 5.5 5.5 5.6 5.4 5.4 5.3 5.1 5.0 5.1 5.2 5.3 5.2 5.2 5.2 5.2 5.2
5.6 5.6 5.6 5.5 5.4 5.4 5.6 5.6 5.7 5.7 5.9 6.1 6.3 6.4 6.5 6.3 6.1 6.1 6.0 6.0 6.1 6.1 6.1 5.9 5.7 5.6 5.6 5.5 5.4 5.2 5.2 5.2 5.2 5.1 5.1 5.1 5.1 5.1 5.1 5.2 5.1 5.1 5.1
5.5 5.5 5.5 5.6 5.8 5.8 5.9 6.0 6.0 5.9 5.9 6.1 6.3 6.6 6.7 6.6 6.4 6.3 6.2 6.1 5.9 6.1 6.1 6.0 5.9 5.8 5.7 5.7 5.4 5.1 5.2 5.3 5.2 5.2 5.3 5.3 5.1 5.1 5.3 5.4 5.3 5.2 5.2
6.0 6.1 6.1 6.2 6.1 6.1 6.2 6.1 6.2 6.3 6.5 6.5 6.4 6.4 6.6 6.7 6.6 6.4 6.3 6.1 6.0 5.8 6.0 6.1 6.0 5.9 5.8 5.6 5.6 5.4 5.3 5.3 5.4 5.7 5.7 5.5 5.3 5.3 5.4 5.4 5.4 5.2 5.3
6.5 6.5 6.5 6.5 6.6 6.8 6.7 6.7 6.7 6.7 6.7 6.7 6.7 6.8 6.8 6.9 6.6 6.3 6.1 6.0 5.8 5.7 5.7 5.7 5.9 5.9 5.8 5.7 5.6 5.6 5.3 5.3 5.3 5.6 5.6 5.7 5.6 5.6 5.6 5.4 5.3 5.2 5.2
6.6 6.7 6.7 6.7 6.7 6.8 6.9 7.1 7.0 6.9 6.9 6.7 6.7 6.8 6.7 6.5 6.5 6.3 6.0 5.7 5.6 5.6 5.6 5.6 5.4 5.3 5.4 5.4 5.4 5.3 5.2 5.1 5.2 5.1 5.1 5.4 5.4 5.5 5.6 5.5 5.3 5.1 5.1
6.5 6.6 6.5 6.6 6.8 7.0 7.2 7.2 7.2 7.1 6.8 6.6 6.4 6.3 6.1 6.2 6.2 5.9 5.6 5.5 5.1 5.2 5.1 5.0 5.0 5.3 5.2 5.0 4.9 4.7 4.5 4.4 4.7 4.9 5.1 5.3 5.2 5.2 5.5 5.5 5.5 5.4 5.4
6.5 6.5 6.5 6.5 6.7 6.7 6.7 6.7 6.6 6.7 6.8 6.8 6.5 6.2 6.0 5.8 5.5 5.3 5.2 5.1 4.9 4.6 4.3 4.4 3.7 4.0 4.2 3.9 3.9 4.1 4.2 4.2 4.4 4.5 4.6 4.6 5.0 5.1 5.2 5.2 5.3 5.3 5.3
6.2 6.3 6.4 6.5 6.5 6.4 6.3 6.2 6.1 6.0 6.0 6.1 6.2 6.1 6.0 6.0 5.6 5.1 5.0 4.7 4.5 3.8 3.3 3.2 3.1 3.2 3.2 3.2 3.2 3.4 3.8 4.3 3.9 4.0 4.1 4.3 4.7 4.7 5.1 5.1 5.2 5.3 5.3
6.3 6.3 6.4 6.4 6.3 6.1 6.0 5.9 5.9 5.8 5.8 5.9 6.0 6.2 6.4 6.3 6.2 5.8 4.9 3.7 3.5 3.4 3.3 2.9 3.0 2.7 2.6 2.8 2.9 3.1 3.5 3.7 4.1 4.5 4.1 4.2 4.5 4.7 4.8 5.2 5.3 5.3 5.3
6.3 6.2 6.1 6.1 6.1 6.1 6.1 6.0 6.0 5.9 5.8 6.0 6.1 6.3 6.2 6.1 6.0 5.9 5.6 4.9 4.4 4.0 3.8 3.8 3.5 3.0 3.2 3.2 2.7 3.3 3.5 4.1 3.7 3.8 4.1 4.3 4.5 4.7 4.9 5.1 5.3 5.3 5.5
6.3 6.2 6.2 6.3 6.4 6.4 6.3 6.3 6.3 6.3 6.3 6.4 6.1 5.8 5.6 5.5 5.2 5.1 4.9 4.8 4.8 4.6 4.7 4.4 4.3 4.1 4.0 3.9 4.0 4.4 4.5 4.6 4.7 4.7 4.7 4.9 5.0 5.1 5.2 5.3 5.4 5.6 5.6
6.2 6.4 6.4 6.4 6.4 6.5 6.4 6.2 6.1 6.0 5.9 5.8 5.4 5.1 4.7 4.3 4.0 4.1 4.2 4.5 4.8 4.7 4.8 4.9 4.9 4.7 4.5 4.3 4.3 4.5 4.6 4.5 4.6 4.8 5.1 5.1 5.4 5.3 5.7 5.7 5.8 5.9 5.9
6.2 6.1 6.1 6.2 6.3 6.3 6.1 6.1 6.0 5.7 5.4 5.0 4.8 4.7 4.5 4.2 4.2 4.3 4.4 4.4 4.5 4.9 4.9 5.0 5.0 4.8 4.9 4.9 4.6 4.7 4.3 4.5 4.2 4.7 4.9 5.2 5.5 5.7 6.0 6.0 6.0 6.1 6.1
6.0 6.0 6.2 6.3 6.3 6.2 6.0 6.0 6.0 5.7 5.4 5.1 4.8 4.5 4.3 4.4 4.2 4.1 4.0 4.5 4.5 4.6 4.8 5.2 5.2 5.2 4.9 4.7 4.7 4.6 4.9 5.0 4.8 4.9 5.0 5.3 5.4 5.6 6.0 6.1 6.3 6.2 5.9
6.0 6.2 6.2 6.2 6.1 6.1 6.1 6.0 5.9 5.9 5.9 5.5 5.4 5.1 4.6 4.3 4.1 3.9 4.1 4.3 4.4 4.4 4.7 4.7 5.1 5.3 5.4 5.4 5.4 5.4 5.4 5.3 5.4 5.4 5.6 6.0 6.0 5.9 5.9 5.9 6.1 6.3 6.2
Wind_Speed
7 6 4 2 1 2 3 4 5 6 7 9 5 4 4 5 7 6 3 4 3 3 4 7 8 10 6 6 8 8 9 10 11 8 9 7 9 8 7 10 11 12 13
5 4 3 3 2 1 3 5 6 7 7 8 8 5 6 5 9 8 5 5 4 3 5 5 5 7 9 6 8 9 8 10 10 13 9 8 9 8 8 8 7 10 11
5 6 6 5 3 1 2 3 4 6 8 7 7 7 7 6 8 7 7 5 5 4 4 4 7 4 6 5 7 8 8 7 7 9 9 5 8 7 7 8 7 7 10
6 7 7 7 5 3 2 2 1 3 5 7 7 7 8 8 8 3 6 9 8 4 6 6 7 8 9 7 6 7 7 9 9 8 9 7 8 7 6 7 6 7 8
7 8 8 7 7 7 3 2 5 6 5 6 7 8 8 7 5 8 8 6 6 6 7 8 8 10 15 12 7 7 7 8 7 8 7 8 8 7 9 6 5 5 6
6 6 4 5 5 3 2 1 3 4 6 7 9 9 10 7 9 10 10 8 8 9 8 7 6 8 9 8 12 14 12 8 9 7 7 7 7 6 7 7 6 5 4
4 4 5 5 6 3 4 4 4 6 8 9 9 9 9 10 8 10 11 9 9 9 10 10 9 8 7 8 8 9 10 12 12 9 10 8 6 6 4 8 9 7 8
4 4 5 6 4 4 4 4 5 5 7 8 9 8 8 8 8 9 11 9 10 11 11 10 10 10 10 8 7 7 8 7 8 8 8 10 7 6 8 5 6 5 7
4 5 3 2 2 3 5 6 6 7 8 8 9 9 8 8 8 10 9 10 11 12 10 10 10 10 9 6 7 8 8 9 6 8 9 8 7 6 7 5 5 4 8
3 3 4 5 5 5 6 8 7 8 9 9 10 10 8 8 9 9 9 9 11 9 9 7 7 9 9 6 9 8 9 8 7 6 5 7 8 8 10 10 7 7 5
5 6 6 7 6 6 7 7 8 9 10 11 11 10 9 8 10 9 7 9 9 10 9 9 7 6 8 7 9 10 9 4 4 5 5 6 6 6 6 6 8 7 6
7 7 7 7 6 7 9 8 9 9 11 11 10 10 9 9 9 9 8 8 10 9 10 9 9 5 10 11 5 9 3 4 5 5 6 7 6 6 4 4 6 8 9
7 8 9 9 9 8 8 9 9 9 8 9 9 10 10 9 9 9 9 8 9 9 10 10 13 13 9 8 11 9 5 6 7 7 8 7 6 5 5 5 7 8 9
8 8 8 8 9 8 7 7 7 8 9 9 9 10 10 10 9 9 10 11 10 9 8 10 12 13 12 9 7 7 6 7 8 9 9 8 6 6 7 6 6 7 7
7 7 7 6 8 9 7 7 7 7 7 8 9 9 10 9 8 14 12 12 11 11 11 11 9 9 9 9 8 8 7 7 7 9 9 9 9 8 8 6 6 6 8
7 7 6 7 7 7 8 8 4 9 11 11 11 8 8 11 11 13 15 16 15 10 8 10 10 9 9 9 9 9 9 8 9 10 10 10 10 10 10 9 8 8 10
7 8 6 6 7 8 8 9 10 9 8 7 9 10 11 13 14 14 17 15 14 3 8 10 7 6 7 6 7 9 9 9 10 9 9 10 10 10 10 10 9 8 9
7 5 6 6 7 8 8 9 9 11 12 11 12 12 11 13 16 18 15 12 8 4 6 5 7 7 7 7 8 8 6 6 7 8 10 11 10 10 9 9 10 11 10
7 7 7 6 7 7 8 9 9 10 11 11 12 10 11 15 17 16 14 8 9 8 8 8 7 8 7 8 8 9 10 8 8 8 9 10 11 9 8 9 9 10 11
6 8 6 6 6 8 8 9 9 10 11 11 11 12 14 16 13 12 10 10 10 9 10 9 10 9 8 8 9 12 13 13 12 9 11 11 11 10 8 10 9 10 9
5 5 6 6 7 7 8 8 8 9 10 10 11 12 14 12 11 10 10 10 10 10 10 10 8 9 10 9 9 8 10 10 9 8 9 10 9 8 9 9 9 11 9
4 5 5 6 6 7 7 7 8 9 9 10 11 13 14 11 10 10 10 10 9 9 9 10 10 9 7 8 9 6 7 10 10 9 8 8 8 8 8 9 9 8 9
4 5 5 5 5 5 6 7 7 7 9 9 9 9 10 9 10 10 11 11 10 10 9 9 10 10 9 8 6 7 9 9 9 6 7 7 8 9 8 9 9 9 9
4 4 5 5 5 5 5 6 6 6 7 8 9 8 8 9 10 12 11 11 11 11 10 9 10 14 12 11 9 9 9 8 7 8 12 7 8 10 9 9 9 11 11
6 6 6 6 6 6 6 6 7 7 8 8 9 9 8 8 9 10 11 11 11 12 13 12 9 13 15 18 18 19 17 14 10 10 9 12 12 14 12 9 11 11 13
7 8 7 6 6 6 6 7 7 8 8 9 9 9 9 7 7 8 9 11 12 13 15 11 12 17 19 14 16 17 16 16 16 12 11 11 11 11 10 13 17 12 14
Wind_Direction
147 152 163 116 42 310 314 327 339 355 359 360 320 297 304 261 232 236 236 263 251 272 280 268 265 252 230 225 229 232 235 236 251 257 261 261 260 250 243 238 241 239 241
145 137 142 162 201 318 351 7 5 9 17 13 21 350 297 253 244 239 230 221 223 271 298 313 282 284 254 230 233 226 223 238 248 259 256 248 246 256 267 257 246 238 243
177 172 170 171 171 131 40 15 6 4 4 10 16 7 350 320 259 247 244 246 258 246 253 275 274 285 261 246 245 240 233 247 242 259 265 245 260 256 257 251 242 244 238
210 200 184 172 169 175 202 225 316 357 352 350 353 356 354 353 12 329 273 274 264 276 292 277 284 281 275 251 227 247 245 249 229 237 253 254 255 254 249 257 248 237 239
212 211 200 183 176 193 189 315 330 335 344 345 342 343 341 336 359 346 339 329 318 297 258 224 231 240 246 249 259 241 233 241 239 248 250 248 245 246 243 242 238 247 246
216 237 253 241 224 226 254 307 306 318 328 328 333 332 328 324 345 330 330 314 305 301 295 290 269 257 264 245 236 234 239 239 241 230 236 236 242 251 268 251 246 250 263
208 236 255 280 269 273 274 268 305 321 325 331 329 331 327 320 338 327 333 309 298 288 282 280 279 268 259 268 262 238 231 227 239 253 248 237 235 231 225 253 242 240 250
199 243 260 252 273 292 286 306 312 316 323 321 315 320 322 319 328 325 335 323 301 286 274 267 264 266 263 263 270 264 263 247 226 225 227 254 249 259 245 253 265 252 262
220 249 270 355 349 319 310 313 310 306 313 310 305 305 308 309 322 322 337 324 321 301 290 282 276 274 268 240 263 264 267 262 244 233 243 255 254 248 234 226 221 216 255
35 26 33 14 346 336 333 326 318 307 298 300 296 297 297 293 314 313 333 324 313 317 302 295 255 265 294 240 253 261 266 263 260 251 237 235 231 229 209 220 226 226 233
32 43 38 24 4 3 344 342 330 318 309 297 294 292 288 299 313 316 320 324 317 309 298 295 301 2 322 282 244 252 252 275 233 258 268 267 260 249 242 217 226 221 230
30 28 20 8 357 351 341 334 329 323 310 309 308 302 300 310 311 316 316 296 305 299 297 298 302 10 316 302 255 257 226 228 246 254 258 261 260 250 243 246 246 246 247
16 10 3 357 357 345 338 335 326 326 316 315 311 308 305 310 310 306 297 288 294 305 304 313 299 286 276 265 245 247 239 239 251 249 251 256 247 255 282 264 256 256 259
15 8 3 354 343 345 340 338 331 330 327 321 318 307 311 312 319 326 334 324 311 293 309 309 302 282 264 279 292 232 233 241 249 256 265 269 262 256 265 265 267 268 261
5 5 2 349 347 348 344 337 332 332 330 318 316 321 318 320 328 317 309 310 308 309 315 289 289 291 288 283 273 264 262 242 243 250 254 255 258 261 260 243 246 252 251
5 3 9 350 352 343 335 333 274 255 274 287 293 288 317 294 305 310 303 299 289 280 276 279 282 287 288 290 290 289 281 261 263 258 255 257 261 257 252 247 247 251 254
16 8 2 357 358 354 351 342 337 336 311 296 307 309 307 303 311 313 314 310 286 232 268 281 284 293 294 291 291 293 291 290 297 273 265 261 259 257 247 250 248 249 256
25 25 1 6 2 356 353 346 343 342 340 341 344 336 336 341 336 320 314 311 319 281 283 271 288 293 288 287 285 278 271 270 271 270 274 264 259 259 256 246 246 245 249
22 17 14 17 17 2 1 358 354 347 343 339 339 342 350 343 314 308 302 314 310 299 290 292 290 290 288 285 281 279 271 267 260 263 260 264 266 262 245 242 242 237 246
39 27 15 15 10 8 7 2 353 350 348 345 342 343 347 342 347 345 341 333 330 329 329 320 304 301 291 286 286 293 293 283 265 251 256 258 260 260 250 252 245 247 240
29 32 14 24 19 14 9 5 2 353 348 343 339 342 335 331 335 334 332 328 324 323 321 318 317 306 301 296 290 314 297 279 262 266 270 274 265 259 258 256 251 252 244
26 29 20 21 10 9 357 358 355 351 348 341 336 336 328 334 330 324 323 318 314 310 309 309 303 297 300 312 300 298 307 304 300 308 285 259 249 253 255 253 252 251 250
6 11 15 9 357 340 358 3 354 354 349 345 341 333 332 329 327 325 322 319 316 312 305 300 298 295 290 292 296 298 288 283 287 318 321 312 315 294 245 245 246 251 247
309 324 332 334 344 330 342 338 345 343 337 347 348 340 332 329 327 326 325 322 318 315 310 301 295 294 296 293 293 285 276 279 295 301 295 290 290 289 282 284 257 252 247
284 293 295 304 314 321 320 320 324 329 328 334 336 344 331 329 333 334 331 330 326 322 320 317 308 304 302 300 294 292 286 281 280 292 289 277 269 268 263 263 262 264 258
279 280 283 286 287 294 303 307 309 310 317 322 326 326 325 316 317 326 330 333 333 330 328 323 319 316 311 305 299 294 287 283 283 272 273 269 262 255 252 250 253 255 248